Time,TemperatureF,DewpointF,PressureIn,WindDirection,WindDirectionDegrees,WindSpeedMPH,WindSpeedGustMPH,Humidity,HourlyPrecipIn,Conditions,Clouds,dailyrainin,SoftwareType,DateUTC
2013-07-08 00:02:00,66.0,64.0,30.20,SSW,201,0.0,3.0,92,0.00,,,0.15,,2013-07-08 04:02:00,
2013-07-08 00:12:00,66.0,64.0,30.20,SSW,201,0.0,3.0,92,0.00,,,0.15,,2013-07-08 04:12:00,
2013-07-08 00:22:00,66.0,64.0,30.20,SSW,201,0.0,2.0,92,0.00,,,0.15,,2013-07-08 04:22:00,
2013-07-08 00:33:00,66.0,64.0,30.20,SSW,201,0.0,2.0,92,0.00,,,0.15,,2013-07-08 04:33:00,
2013-07-08 00:42:00,67.0,65.0,30.20,SSW,201,0.0,5.0,92,0.00,,,0.15,,2013-07-08 04:42:00,
2013-07-08 00:53:00,66.0,64.0,30.20,SSW,201,0.0,4.0,92,0.00,,,0.15,,2013-07-08 04:53:00,
2013-07-08 01:01:00,66.0,64.0,30.20,SSW,204,1.0,5.0,92,0.00,,,0.15,,2013-07-08 05:01:00,
2013-07-08 01:12:00,66.0,64.0,30.20,SSW,204,1.0,5.0,92,0.00,,,0.15,,2013-07-08 05:12:00,
2013-07-08 01:22:00,66.0,64.0,30.20,SSW,204,2.0,6.0,94,0.00,,,0.15,,2013-07-08 05:22:00,
2013-07-08 01:33:00,65.0,64.0,30.19,SSW,200,1.0,8.0,95,0.00,,,0.15,,2013-07-08 05:33:00,
2013-07-08 01:43:00,65.0,64.0,30.19,SSW,200,1.0,8.0,95,0.00,,,0.15,,2013-07-08 05:43:00,
2013-07-08 01:53:00,65.0,63.0,30.19,SSW,194,1.0,7.0,94,0.00,,,0.15,,2013-07-08 05:53:00,
2013-07-08 02:01:00,66.0,64.0,30.19,SSW,195,2.0,6.0,93,0.00,,,0.15,,2013-07-08 06:01:00,
2013-07-08 02:12:00,66.0,64.0,30.19,SSW,195,2.0,6.0,93,0.00,,,0.15,,2013-07-08 06:12:00,
2013-07-08 02:22:00,66.0,64.0,30.19,SSW,193,2.0,7.0,93,0.00,,,0.12,,2013-07-08 06:22:00,
2013-07-08 02:34:00,66.0,64.0,30.19,SSW,205,2.0,7.0,92,0.00,,,0.12,,2013-07-08 06:34:00,
2013-07-08 02:43:00,66.0,64.0,30.19,SSW,205,2.0,7.0,92,0.00,,,0.12,,2013-07-08 06:43:00,
2013-07-08 02:53:00,66.0,64.0,30.19,SSW,203,2.0,7.0,92,0.00,,,0.12,,2013-07-08 06:53:00,
2013-07-08 03:02:00,66.0,64.0,30.19,SSW,204,0.0,6.0,92,0.00,,,0.12,,2013-07-08 07:02:00,
2013-07-08 03:12:00,66.0,64.0,30.19,SSW,204,0.0,6.0,92,0.00,,,0.12,,2013-07-08 07:12:00,
2013-07-08 03:22:00,66.0,64.0,30.20,SSW,203,0.0,7.0,92,0.00,,,0.11,,2013-07-08 07:22:00,
2013-07-08 03:34:00,66.0,63.0,30.19,SSW,203,0.0,3.0,91,0.00,,,0.11,,2013-07-08 07:34:00,
2013-07-08 03:44:00,66.0,63.0,30.19,SSW,203,0.0,3.0,91,0.00,,,0.11,,2013-07-08 07:44:00,
2013-07-08 03:53:00,66.0,63.0,30.20,SSW,203,0.0,4.0,91,0.00,,,0.11,,2013-07-08 07:53:00,
2013-07-08 04:02:00,66.0,64.0,30.19,SSW,203,1.0,6.0,92,0.00,,,0.11,,2013-07-08 08:02:00,
2013-07-08 04:12:00,66.0,64.0,30.19,SSW,203,1.0,6.0,92,0.00,,,0.11,,2013-07-08 08:12:00,
2013-07-08 04:22:00,66.0,64.0,30.19,SSW,203,1.0,5.0,92,0.00,,,0.08,,2013-07-08 08:22:00,
2013-07-08 04:33:00,66.0,63.0,30.18,SSW,203,2.0,7.0,91,0.00,,,0.08,,2013-07-08 08:33:00,
2013-07-08 04:42:00,66.0,63.0,30.18,SSW,203,2.0,7.0,91,0.00,,,0.08,,2013-07-08 08:42:00,
2013-07-08 04:53:00,66.0,63.0,30.18,SSW,198,1.0,6.0,90,0.00,,,0.08,,2013-07-08 08:53:00,
2013-07-08 05:02:00,66.0,63.0,30.19,SSW,200,1.0,7.0,90,0.00,,,0.08,,2013-07-08 09:02:00,
2013-07-08 05:11:00,66.0,63.0,30.19,SSW,200,1.0,7.0,90,0.00,,,0.08,,2013-07-08 09:11:00,
2013-07-08 05:22:00,66.0,63.0,30.19,SSW,200,0.0,4.0,90,0.00,,,0.02,,2013-07-08 09:22:00,
2013-07-08 05:34:00,66.0,63.0,30.18,SSW,201,1.0,6.0,90,0.00,,,0.02,,2013-07-08 09:34:00,
2013-07-08 05:43:00,66.0,63.0,30.18,SSW,201,1.0,6.0,90,0.00,,,0.02,,2013-07-08 09:43:00,
2013-07-08 05:53:00,66.0,63.0,30.19,SSW,200,0.0,4.0,89,0.00,,,0.02,,2013-07-08 09:53:00,
2013-07-08 06:02:00,66.0,63.0,30.19,SSW,201,0.0,4.0,90,0.00,,,0.02,,2013-07-08 10:02:00,
2013-07-08 06:11:00,66.0,63.0,30.19,SSW,201,0.0,4.0,90,0.00,,,0.02,,2013-07-08 10:11:00,
2013-07-08 06:22:00,65.0,62.0,30.19,SSW,202,1.0,3.0,90,0.00,,,0.02,,2013-07-08 10:22:00,
2013-07-08 06:34:00,65.0,62.0,30.19,SSW,201,0.0,3.0,91,0.00,,,0.02,,2013-07-08 10:34:00,
2013-07-08 06:43:00,65.0,62.0,30.19,SSW,201,0.0,3.0,91,0.00,,,0.02,,2013-07-08 10:43:00,
2013-07-08 06:53:00,65.0,62.0,30.19,SSW,201,0.0,4.0,91,0.00,,,0.02,,2013-07-08 10:53:00,
2013-07-08 07:02:00,65.0,62.0,30.19,SSW,201,1.0,3.0,91,0.00,,,0.02,,2013-07-08 11:02:00,
2013-07-08 07:11:00,65.0,62.0,30.19,SSW,201,1.0,3.0,91,0.00,,,0.02,,2013-07-08 11:11:00,
2013-07-08 07:23:00,65.0,62.0,30.19,SSW,201,0.0,2.0,91,0.00,,,0.00,,2013-07-08 11:23:00,
2013-07-08 07:33:00,65.0,62.0,30.20,SSW,201,1.0,4.0,91,0.00,,,0.00,,2013-07-08 11:33:00,
2013-07-08 07:43:00,65.0,62.0,30.20,SSW,201,1.0,4.0,91,0.00,,,0.00,,2013-07-08 11:43:00,
2013-07-08 07:53:00,65.0,63.0,30.20,SSW,200,0.0,4.0,92,0.00,,,0.00,,2013-07-08 11:53:00,
2013-07-08 08:01:00,65.0,63.0,30.21,SSW,200,0.0,2.0,93,0.00,,,0.00,,2013-07-08 12:01:00,
2013-07-08 08:11:00,65.0,63.0,30.21,SSW,200,0.0,2.0,93,0.00,,,0.00,,2013-07-08 12:11:00,
2013-07-08 08:22:00,65.0,63.0,30.21,SSW,200,0.0,2.0,93,0.00,,,0.00,,2013-07-08 12:22:00,
2013-07-08 08:34:00,66.0,64.0,30.21,SSW,200,0.0,1.0,92,0.00,,,0.00,,2013-07-08 12:34:00,
2013-07-08 08:53:00,70.0,65.0,30.22,SSW,200,1.0,4.0,84,0.00,,,0.00,,2013-07-08 12:53:00,
2013-07-08 09:53:00,72.0,68.0,30.23,SSW,200,1.0,2.0,86,0.00,,,0.00,,2013-07-08 13:53:00,
2013-07-08 10:02:00,72.0,68.0,30.23,SSW,200,1.0,2.0,86,0.00,,,0.00,,2013-07-08 14:02:00,
2013-07-08 10:12:00,71.0,66.0,30.23,SSW,200,2.0,4.0,85,0.00,,,0.00,,2013-07-08 14:12:00,
2013-07-08 10:23:00,74.0,67.0,30.24,SSW,200,0.0,4.0,80,0.00,,,0.00,,2013-07-08 14:23:00,
2013-07-08 10:34:00,74.0,67.0,30.24,SSW,200,0.0,4.0,80,0.00,,,0.00,,2013-07-08 14:34:00,
2013-07-08 10:43:00,73.0,66.0,30.24,SSW,200,0.0,1.0,78,0.00,,,0.00,,2013-07-08 14:43:00,
2013-07-08 10:53:00,72.0,66.0,30.24,SSW,200,0.0,1.0,81,0.00,,,0.00,,2013-07-08 14:53:00,
2013-07-08 11:02:00,72.0,66.0,30.24,SSW,200,0.0,1.0,81,0.00,,,0.00,,2013-07-08 15:02:00,
2013-07-08 11:11:00,72.0,67.0,30.24,SSW,200,0.0,1.0,84,0.00,,,0.00,,2013-07-08 15:11:00,
2013-07-08 11:33:00,73.0,69.0,30.25,SSW,200,0.0,1.0,86,0.00,,,0.00,,2013-07-08 15:33:00,
2013-07-08 11:43:00,72.0,68.0,30.25,SSW,200,0.0,2.0,88,0.00,,,0.00,,2013-07-08 15:43:00,
2013-07-08 11:53:00,76.0,67.0,30.25,SSW,200,0.0,3.0,75,0.00,,,0.00,,2013-07-08 15:53:00,
2013-07-08 12:01:00,76.0,67.0,30.25,SSW,200,0.0,3.0,75,0.00,,,0.00,,2013-07-08 16:01:00,
2013-07-08 12:22:00,73.0,67.0,30.25,SSW,200,0.0,3.0,82,0.00,,,0.00,,2013-07-08 16:22:00,
2013-07-08 12:43:00,73.0,69.0,30.25,SSW,200,0.0,1.0,86,0.00,,,0.00,,2013-07-08 16:43:00,
2013-07-08 12:57:00,77.0,69.0,30.24,SSW,200,1.0,3.0,77,0.00,,,0.00,,2013-07-08 16:57:00,
2013-07-08 13:07:00,77.0,69.0,30.24,SSW,200,1.0,3.0,77,0.00,,,0.00,,2013-07-08 17:07:00,
2013-07-08 13:14:00,74.0,69.0,30.24,SSW,200,0.0,4.0,84,0.00,,,0.00,,2013-07-08 17:14:00,
2013-07-08 13:37:00,75.0,71.0,30.24,SSW,200,1.0,3.0,86,0.00,,,0.00,,2013-07-08 17:37:00,
2013-07-08 13:46:00,77.0,68.0,30.24,SSW,200,0.0,2.0,75,0.00,,,0.00,,2013-07-08 17:46:00,
2013-07-08 13:55:00,78.0,68.0,30.24,SSW,200,0.0,3.0,72,0.00,,,0.00,,2013-07-08 17:55:00,
2013-07-08 14:09:00,78.0,68.0,30.24,SSW,200,0.0,3.0,72,0.00,,,0.00,,2013-07-08 18:09:00,
2013-07-08 14:43:00,76.0,67.0,30.23,SSW,200,0.0,4.0,75,0.00,,,0.00,,2013-07-08 18:43:00,
2013-07-08 15:00:00,79.0,70.0,30.22,SSW,200,0.0,2.0,74,0.00,,,0.00,,2013-07-08 19:00:00,
2013-07-08 15:19:00,77.0,68.0,30.22,SSW,200,0.0,2.0,75,0.00,,,0.00,,2013-07-08 19:19:00,
2013-07-08 15:52:00,78.0,70.0,30.22,SSW,200,0.0,1.0,77,0.00,,,0.00,,2013-07-08 19:52:00,
2013-07-08 16:14:00,78.0,69.0,30.21,SSW,200,0.0,2.0,75,0.00,,,0.00,,2013-07-08 20:14:00,
2013-07-08 16:22:00,78.0,69.0,30.21,SSW,200,0.0,2.0,75,0.00,,,0.00,,2013-07-08 20:22:00,
2013-07-08 16:51:00,77.0,69.0,30.20,SSW,200,1.0,3.0,77,0.00,,,0.00,,2013-07-08 20:51:00,
2013-07-08 17:08:00,77.0,69.0,30.19,SSW,200,0.0,2.0,77,0.00,,,0.00,,2013-07-08 21:08:00,
2013-07-08 17:42:00,77.0,68.0,30.19,SSW,200,0.0,1.0,74,0.00,,,0.00,,2013-07-08 21:42:00,
2013-07-08 17:52:00,77.0,68.0,30.19,SSW,200,0.0,1.0,74,0.00,,,0.00,,2013-07-08 21:52:00,
2013-07-08 18:09:00,77.0,69.0,30.18,SSW,200,0.0,1.0,77,0.00,,,0.00,,2013-07-08 22:09:00,
2013-07-08 18:23:00,76.0,68.0,30.18,SSW,200,0.0,1.0,77,0.00,,,0.00,,2013-07-08 22:23:00,
2013-07-08 18:32:00,75.0,69.0,30.18,SSW,200,0.0,1.0,81,0.00,,,0.00,,2013-07-08 22:32:00,
2013-07-08 18:44:00,75.0,70.0,30.18,SSW,200,0.0,1.0,84,0.00,,,0.00,,2013-07-08 22:44:00,
2013-07-08 18:54:00,75.0,70.0,30.18,SSW,200,0.0,1.0,84,0.00,,,0.00,,2013-07-08 22:54:00,
2013-07-08 19:09:00,74.0,70.0,30.18,SSW,200,0.0,1.0,86,0.00,,,0.00,,2013-07-08 23:09:00,
2013-07-08 19:22:00,74.0,69.0,30.19,SSW,200,0.0,1.0,85,0.00,,,0.00,,2013-07-08 23:22:00,
2013-07-08 19:32:00,74.0,70.0,30.19,SSW,200,0.0,2.0,86,0.00,,,0.00,,2013-07-08 23:32:00,
2013-07-08 19:54:00,73.0,69.0,30.19,SSW,200,0.0,1.0,87,0.00,,,0.00,,2013-07-08 23:54:00,
2013-07-08 20:09:00,73.0,69.0,30.19,SSW,200,0.0,0.0,87,0.00,,,0.00,,2013-07-09 00:09:00,
2013-07-08 20:42:00,70.0,67.0,30.20,SSW,200,0.0,1.0,89,0.00,,,0.00,,2013-07-09 00:42:00,
2013-07-08 20:54:00,70.0,67.0,30.20,SSW,200,0.0,1.0,89,0.00,,,0.00,,2013-07-09 00:54:00,
2013-07-08 21:09:00,70.0,67.0,30.20,SSW,200,0.0,3.0,90,0.00,,,0.00,,2013-07-09 01:09:00,
2013-07-08 21:22:00,69.0,66.0,30.20,SSW,200,0.0,2.0,90,0.00,,,0.00,,2013-07-09 01:22:00,
2013-07-08 22:27:00,-999.0,-99.9,30.21,SSW,200,0.0,2.0,91,0.00,,,0.00,,2013-07-09 02:27:00,
2013-07-08 23:24:00,66.0,65.0,30.23,SSW,200,1.0,4.0,95,0.00,,,0.00,,2013-07-09 03:24:00,
2013-07-08 23:53:00,67.0,65.0,30.23,SSW,200,1.0,3.0,94,0.00,,,0.00,,2013-07-09 03:53:00,